T-MICROSAT-1

导读

T-MICROSAT-1卫星由中国台湾地区于**2025年11月28日发射入轨**,是一颗微纳卫星。作为区域航天探索项目的组成部分,该卫星大概率承担技术验证任务,测试小型卫星平台设计、低成本航天制造及空间环境适应性等前沿技术,为后续同类型卫星研发积累经验,也推动了中国台湾地区在微卫星领域的技术探索与发展。

Basic Information
目录编号:
66766
目录名称:
T-MICROSAT-1
国际标识:
2025-276DE
轨道中心:
EARTH
卫星名称:
T-MICROSAT-1
卫星全名:
T-MICROSAT-1
卫星状态:
在轨 (已飞行281 天)
发射日期:
2025-11-28 UTC
国别 :
(TW)
星等 :
--
Orbit Information
数据来源 国际轨道数据
星历时间: 2026-09-05T19:00:44+0800
8小时前
查看轨道信息
半长轴: 6879.3km
偏心率: 0.0001063
轨道倾角: 97.410°
近地点辐角 102.806°
升交点赤经 320.945°
平近点角 257.329°
近地点: 500.431km
远地点: 501.895km
周期: 94.640分钟
每日圈数: 15.215508
Detailed Information
使用方式:
暂无
2D Orbit Map
3D Orbit Map
Orbit Altitude Analysis Chart
Orbit Inclination Analysis Chart
Orbit Comprehensive Analysis Chart
View Comprehensive Chart
Conjunction Data List
Event ID Objects TCA Miss Dist (km) Collision Risk Probability Collision Risk Index (CRI) Action
CDM_260907-104605-403506-676623
HJ-2E (54035)
2026-09-07T
10:46:43+0000
0.478 km
远距离
1.651774E-4 高风险 0.79
CDM_260907-203906-323306-676622
2026-09-07T
20:39:19+0000
1.580 km
极远距离
5.747652E-6 低风险 0.5
CDM_260907-190406-323306-676622
2026-09-07T
19:04:39+0000
1.792 km
极远距离
3.908544E-6 低风险 0.47
CDM_260906-023704-318106-676621
2026-09-06T
02:37:42+0000
2.328 km
极远距离
2.030537E-6 低风险 0.41
CDM_260906-010304-318106-676624
2026-09-06T
01:03:01+0000
2.907 km
极远距离
1.403941E-6 低风险 0.38
CDM_260907-201406-671906-676621
2026-09-07T
20:14:32+0000
2.889 km
极远距离
2.318817E-7 极低风险 0.22